West Palm Beach, FL

5:40 AM EST on November 13, 2019 (GMT -0500)
Palm Beach International

Weather History for KPBI - September, 2019

Change the Weather History Date:

Tuesday, September 10, 2019

  Actual Average Record
Temperature  
Mean Temperature 86 °F 82 °F  
Max Temperature 90 °F 89 °F 94 °F (1954)
Min Temperature 81 °F 75 °F 69 °F (1981)
Degree Days  
Heating Degree Days 0 0  
Month to date heating degree days 0 0  
Since 1 July heating degree days 0 0  
Cooling Degree Days 21 17  
Month to date cooling degree days 193 170  
Year to date cooling degree days 3359 2876  
Growing Degree Days 36 (Base 50)    
Moisture  
Dew Point 73 °F    
Average Humidity 68    
Maximum Humidity 79    
Minimum Humidity 56    
Precipitation  
Precipitation 0.00 in 0.27 in 3.81 in (1932)
Month to date precipitation 0.09 2.78  
Year to date precipitation 44.05 43.50  
Snow  
Snow 0.00 in - - ()
Month to date snowfall 0.0  
Since 1 July snowfall 0.0  
Since 1 September snowfall 0.0  
Snow Depth 0.00 in    
Sea Level Pressure  
Sea Level Pressure 30.13 in    
Wind  
Wind Speed 13 mph (ENE)    
Max Wind Speed 20 mph    
Max Gust Speed 25 mph    
Visibility 10 miles    
Events      
T = Trace of Precipitation, MM = Missing Value Source: NWS Daily Summary

Daily Weather History Graph

Daily Weather History Graph

Search for Another Location

Airport or City:

Astronomy

Sep. 10, 2019 Rise Set
Actual Time 7:03 AM EDT 7:30 PM EDT
Civil Twilight 6:40 AM EDT 7:53 PM EDT
Nautical Twilight 6:13 AM EDT 8:21 PM EDT
Astronomical Twilight 5:45 AM EDT 8:48 PM EDT
Moon 5:44 PM EDT (9/10) 3:52 AM EDT (9/10)
Length of Visible Light 13h 13m
Length of Day
12h 26m
Waxing Gibbous, 89% of the Moon is Illuminated
Sep 10
Waxing Gibbous
Sep 14
Full
Sep 21
Last Quarter
Sep 28
New
Oct 5
First Quarter

Hourly Weather History & Observations

Time (EDT) Temp. Heat Index Dew Point Humidity Pressure Visibility Wind Dir Wind Speed Gust Speed Precip Events Conditions
12:53 AM 84.0 °F 91.9 °F 75.0 °F 74% 30.12 in 10.0 mi East 11.5 mph - N/A   Scattered Clouds
1:53 AM 84.0 °F 91.2 °F 73.9 °F 72% 30.11 in 10.0 mi East 13.8 mph - N/A   Scattered Clouds
2:53 AM 82.9 °F 88.0 °F 72.0 °F 69% 30.10 in 10.0 mi East 11.5 mph - N/A   Scattered Clouds
3:53 AM 82.0 °F 86.7 °F 72.0 °F 71% 30.09 in 10.0 mi ESE 12.7 mph - N/A   Partly Cloudy
4:53 AM 82.0 °F 86.7 °F 72.0 °F 71% 30.10 in 10.0 mi East 6.9 mph - N/A   Partly Cloudy
5:53 AM 81.0 °F 85.8 °F 73.0 °F 77% 30.11 in 10.0 mi East 8.1 mph - N/A   Partly Cloudy
6:53 AM 82.0 °F 86.7 °F 72.0 °F 71% 30.12 in 10.0 mi East 6.9 mph - N/A   Scattered Clouds
7:53 AM 82.9 °F 89.4 °F 73.9 °F 74% 30.14 in 10.0 mi ENE 6.9 mph - N/A   Mostly Cloudy
8:53 AM 84.9 °F 92.1 °F 73.9 °F 69% 30.16 in 10.0 mi ENE 9.2 mph - N/A   Mostly Cloudy
9:53 AM 86.0 °F 93.8 °F 73.9 °F 67% 30.17 in 10.0 mi East 9.2 mph - N/A   Mostly Cloudy
10:53 AM 87.1 °F 92.8 °F 71.1 °F 59% 30.17 in 10.0 mi ENE 12.7 mph - N/A   Mostly Cloudy
11:53 AM 88.0 °F 94.7 °F 72.0 °F 59% 30.17 in 10.0 mi ENE 15.0 mph - N/A   Scattered Clouds
12:53 PM 88.0 °F 95.6 °F 73.0 °F 61% 30.16 in 10.0 mi ENE 16.1 mph 20.7 mph N/A   Scattered Clouds
1:53 PM 89.1 °F 95.0 °F 71.1 °F 55% 30.14 in 10.0 mi East 15.0 mph - N/A   Scattered Clouds
2:53 PM 87.1 °F 94.5 °F 73.0 °F 63% 30.13 in 10.0 mi East 15.0 mph 24.2 mph N/A   Scattered Clouds
3:53 PM 88.0 °F 96.5 °F 73.9 °F 63% 30.12 in 10.0 mi NE 15.0 mph - N/A   Mostly Cloudy
4:53 PM 88.0 °F 96.5 °F 73.9 °F 63% 30.12 in 10.0 mi ENE 15.0 mph 20.7 mph N/A   Scattered Clouds
5:53 PM 87.1 °F 93.6 °F 72.0 °F 61% 30.11 in 10.0 mi NE 15.0 mph - N/A   Scattered Clouds
6:53 PM 86.0 °F 93.8 °F 73.9 °F 67% 30.11 in 10.0 mi ENE 17.3 mph 23.0 mph N/A   Scattered Clouds
7:53 PM 84.0 °F 89.6 °F 72.0 °F 67% 30.11 in 10.0 mi NE 15.0 mph - N/A   Scattered Clouds
8:53 PM 84.0 °F 89.0 °F 71.1 °F 65% 30.12 in 10.0 mi NE 15.0 mph 23.0 mph N/A   Scattered Clouds
9:53 PM 84.0 °F 89.6 °F 72.0 °F 67% 30.12 in 10.0 mi ENE 12.7 mph - N/A   Scattered Clouds
10:53 PM 84.0 °F 88.4 °F 70.0 °F 63% 30.12 in 10.0 mi ENE 13.8 mph - N/A   Scattered Clouds
11:53 PM 82.9 °F 87.5 °F 71.1 °F 67% 30.12 in 10.0 mi ENE 12.7 mph - N/A   Scattered Clouds